Location: *
(45.5224°N, 122.7471°W)
Time: 03:05:17
(UTC+00:00)

Okean 2 - Pass Details

Date: 09 April 2020
Orbit: 561 x 576 km, 82.5° (Epoch: 24 May)

Event Time Altitude Azimuth Distance (km) Brightness Sun altitude
Rises 12:42:06 0° 176° (S) 2,757 6.7 -9.7°
Reaches altitude 10° 12:44:18 10° 172° (S) 1,863 5.9 -9.4°
Maximum altitude 12:48:18 55° 95° (E) 683 4.2 -8.7°
Drops below altitude 10° 12:52:20 10° 17° (NNE) 1,869 6.6 -8.0°
Sets 12:54:33 0° 13° (NNE) 2,769 7.4 -7.7°
